Volver al catálogo

STARLINK-36201

ActivoComunicacionesVLEO
NORAD 67164·PAYLOAD·🇺🇸 United States

Lanzado Dec 17, 2025 desde Cape Canaveral Space Force Station

Loading…

Próximos Pases (próximas 24 horas)

TLE

ActualizadoSource: CelesTrak SupGP

Época: Sep 15, 2026, 02:43 UTC

1 67164C 25303B   26258.11368056  .00037311  00000+0  13511-2 0  2585
2 67164  43.0014 320.5817 0001264 266.2664 300.7866 15.27567213    19

Sigue STARLINK-36201 en tiempo real con AllMySat

Download on the App Store